This is the latest recevied weather packets stored in our database for station/object HB9FRQ-10. If no packets are shown the sender has not sent any weather packets the latest 10 day(s).
| Time | Temp. | Humidity | Pressure | Rain* | Wind** | Luminosity | Snow |
|---|---|---|---|---|---|---|---|
| 1777312439 | 20° C | 46% | 1018 hPa | - | - | - | - |
| 1777311539 | 21.11° C | 46% | 1017.9 hPa | - | - | - | - |
| 1777310639 | 22.22° C | 43% | 1017.9 hPa | - | - | - | - |
| 1777309739 | 22.22° C | 38% | 1017.9 hPa | - | - | - | - |
| 1777308839 | 22.22° C | 37% | 1017.9 hPa | - | - | - | - |
| 1777307939 | 22.78° C | 36% | 1018 hPa | - | - | - | - |
| 1777307039 | 23.89° C | 34% | 1017.9 hPa | - | - | - | - |
| 1777306139 | 24.44° C | 33% | 1018.1 hPa | - | - | - | - |
| 1777305238 | 25° C | 32% | 1018 hPa | - | - | - | - |
| 1777304338 | 25° C | 31% | 1018.3 hPa | - | - | - | - |
| 1777303438 | 25.56° C | 31% | 1018.3 hPa | - | - | - | - |
| 1777302538 | 25° C | 30% | 1018.4 hPa | - | - | - | - |
| 1777301638 | 25.56° C | 31% | 1018.4 hPa | - | - | - | - |
| 1777300738 | 25.56° C | 30% | 1018.7 hPa | - | - | - | - |
| 1777299838 | 25.56° C | 31% | 1018.8 hPa | - | - | - | - |
| 1777298938 | 26.11° C | 32% | 1018.9 hPa | - | - | - | - |
| 1777298038 | 27.22° C | 28% | 1019 hPa | - | - | - | - |
| 1777297138 | 27.22° C | 24% | 1019.1 hPa | - | - | - | - |
| 1777296238 | 27.78° C | 25% | 1019.3 hPa | - | - | - | - |
| 1777295337 | 28.33° C | 27% | 1019.5 hPa | - | - | - | - |
| 1777294437 | 25.56° C | 23% | 1019.5 hPa | - | - | - | - |
| 1777293547 | 26.11° C | 24% | 1019.6 hPa | - | - | - | - |
| 1777292647 | 26.67° C | 24% | 1019.7 hPa | - | - | - | - |
| 1777291747 | 27.78° C | 25% | 1020 hPa | - | - | - | - |
| 1777290847 | 25.56° C | 27% | 1020.2 hPa | - | - | - | - |
* Rain since midnight (hover to see other rain measurements)
** Current wind speed in m/s (hover to see current wind gust speed)